Weather History for Kenora, ON

Change the Weather History Date:

Saturday, January 19, 2013

  Actual Average Record
Temperature  
Mean Temperature -4 °F -  
Max Temperature 2 °F 13 °F 32 °F (1997)
Min Temperature -11 °F -5 °F -25 °F (2012)
Degree Days  
Heating Degree Days 70    
Moisture  
Dew Point -6 °F    
Average Humidity 78    
Maximum Humidity 85    
Minimum Humidity 62    
Precipitation  
Precipitation 0.08 in 0.03 in - ()
Sea Level Pressure  
Sea Level Pressure 29.94 in    
Wind  
Wind Speed 9 mph ()    
Max Wind Speed 18 mph    
Max Gust Speed 29 mph    
Visibility 6.1 miles    
Events Snow    
Averages and records for this station are not official NWS values.
T = Trace of Precipitation, MM = Missing Value Source: Averaged Metar Reports

Daily Weather History Graph

Daily Weather History Graph

Search for Another Location

Airport:

Trip Planner

Search our weather history database for the weather conditions in past years. The results will help you decide how hot, cold, wet, or windy it might be!

Date:

Astronomy

Jan. 19, 2013 Rise Set
Actual Time 8:05 AM CST 4:51 PM CST
Civil Twilight 7:29 AM CST 5:27 PM CST
Nautical Twilight 6:49 AM CST 6:07 PM CST
Astronomical Twilight 6:11 AM CST 6:45 PM CST
Moon 11:24 AM CST (1/19) 1:31 AM CST (1/19)
Length of Visible Light 9h 58m
Length of Day
8h 46m
First Quarter, 57% of the Moon is Illuminated
Jan 19
First Quarter
Jan 26
Full
Feb 3
Last Quarter
Feb 10
New
Feb 17
First Quarter

Hourly Weather History & Observations

Time (CST) Temp. Windchill Dew Point Humidity Pressure Visibility Wind Dir Wind Speed Gust Speed Precip Events Conditions
12:00 AM 4 °F - 0 °F 78% 29.81 in 2 mi East 8.1 mph - - Snow Light Snow
12:00 AM 5.0 °F -8.1 °F 1.4 °F 85% 29.81 in 4.0 mi ENE 8.1 mph - N/A Snow Light Snow
12:30 AM - - - N/A% - 1.0 mi ENE 8.1 mph - N/A   Unknown
1:00 AM 3.2 °F -7.8 °F -0.4 °F 85% 29.80 in 1.5 mi ENE 5.8 mph - N/A Snow Light Snow
2:00 AM 3.2 °F -12.2 °F -0.4 °F 85% 29.78 in 1.0 mi East 10.4 mph - N/A Snow Light Snow
3:00 AM 3.2 °F -10.3 °F -0.4 °F 85% 29.76 in 1.0 mi East 8.1 mph - N/A Snow Light Snow
4:00 AM 3.2 °F -11.3 °F -0.4 °F 85% 29.73 in 1.5 mi ENE 9.2 mph - N/A Snow Light Snow
4:45 AM - - - N/A% - 0.8 mi NNE 5.8 mph - N/A   Unknown
5:00 AM 3.2 °F -10.3 °F -0.4 °F 85% 29.72 in 0.8 mi NE 8.1 mph - N/A Snow Light Snow
6:00 AM 3 °F - -1 °F 76% 29.71 in 1 mi NE 9.2 mph - - Snow Light Snow
6:00 AM 3.2 °F -11.3 °F -0.4 °F 85% 29.71 in 1.5 mi NE 9.2 mph - N/A Snow Light Snow
7:00 AM 3.2 °F -10.3 °F -2.2 °F 78% 29.73 in 5.0 mi NE 8.1 mph - N/A Snow Light Snow
7:31 AM - - - N/A% - 1.5 mi NE 10.4 mph - N/A   Unknown
8:00 AM 1.4 °F -13.5 °F -2.2 °F 85% 29.74 in 1.5 mi NNE 9.2 mph - N/A Snow Light Snow
8:43 AM - - - N/A% - 3.0 mi NNE 10.4 mph - N/A   Unknown
9:00 AM -0.4 °F -16.7 °F -4.0 °F 85% 29.77 in 4.0 mi NNE 10.4 mph - N/A Snow Light Snow
9:43 AM - - - N/A% - 10.0 mi North 12.7 mph - N/A   Unknown
10:00 AM -0.4 °F -16.7 °F -5.8 °F 78% 29.81 in 10.0 mi North 10.4 mph - N/A Snow Light Snow
11:00 AM -0.4 °F -17.6 °F -5.8 °F 78% 29.84 in 8.0 mi North 11.5 mph - N/A Snow Light Snow
12:00 PM -1 °F - -7 °F 64% 29.88 in 4 mi North 13.8 mph - - Snow Light Snow
12:00 PM -0.4 °F -18.4 °F -7.6 °F 72% 29.88 in 4.0 mi NNE 12.7 mph 19.6 mph N/A Snow Light Snow
1:00 PM -0.4 °F -19.9 °F -7.6 °F 72% 29.91 in 3.0 mi NNE 15.0 mph 23.0 mph N/A Snow Light Snow
2:00 PM -0.4 °F -21.7 °F -7.6 °F 72% 29.95 in 3.0 mi North 18.4 mph 25.3 mph N/A Snow Light Snow
3:00 PM -0.4 °F -20.5 °F -7.6 °F 72% 30.02 in 3.0 mi North 16.1 mph 28.8 mph N/A Snow Light Snow
4:00 PM -2.2 °F -22.2 °F -7.6 °F 78% 30.08 in 4.0 mi North 15.0 mph 25.3 mph N/A Snow Light Snow
4:41 PM - - - N/A% - 12.0 mi North 10.4 mph 19.6 mph N/A   Unknown
5:00 PM -2.2 °F -19.9 °F -9.4 °F 71% 30.13 in 12.0 mi NNW 11.5 mph 19.6 mph N/A Snow Low Drifting Snow
6:00 PM -4 °F - -10 °F 62% 30.19 in 15 mi NNW 12.7 mph - -   Partly Cloudy
6:00 PM -4.0 °F -23.0 °F -9.4 °F 78% 30.19 in 15.0 mi NNW 12.7 mph 23.0 mph N/A Snow Low Drifting Snow
7:00 PM -5.8 °F -26.0 °F -11.2 °F 77% 30.23 in 15.0 mi NNW 13.8 mph 20.7 mph N/A Snow Low Drifting Snow
8:00 PM -7.6 °F -28.3 °F -13.0 °F 77% 30.24 in 15.0 mi NNW 13.8 mph - N/A   Mostly Cloudy
9:00 PM -9.4 °F -27.9 °F -14.8 °F 77% 30.28 in 15.0 mi NNW 10.4 mph - N/A   Mostly Cloudy
10:00 PM -11.2 °F -29.0 °F -14.8 °F 84% 30.30 in 15.0 mi NNW 9.2 mph - N/A   Partly Cloudy
11:00 PM -11.2 °F -27.8 °F -16.6 °F 77% 30.31 in 15.0 mi NNW 8.1 mph - N/A   Partly Cloudy